Wetterdaten: Samstag, 19.03.2016
Datum Zeit Auen-Temp. Temp gefhlt Luftfeuchte Luftdruck Regen Wind Richtung Richtung Sonnenschein Taupunkt Windben
19.03.2016 00:00 -1,0 C -1,7 C 74 % 1017,6 hPa 0,0 mm 0,0 km/h (0 Bft) O-NO 67 0 min -5,0 C 0,0 km/h (0 Bft)
19.03.2016 00:05 -1,4 C -2,0 C 73 % 1017,6 hPa 0,0 mm 0,0 km/h (0 Bft) NO 45 0 min -5,6 C 0,0 km/h (0 Bft)
19.03.2016 00:10 -1,6 C -2,2 C 74 % 1017,6 hPa 0,0 mm 0,0 km/h (0 Bft) O-NO 67 0 min -5,6 C 0,0 km/h (0 Bft)
19.03.2016 00:15 -1,8 C -2,4 C 74 % 1017,6 hPa 0,0 mm 0,0 km/h (0 Bft) O 90 0 min -5,8 C 0,0 km/h (0 Bft)
19.03.2016 00:20 -1,8 C -2,4 C 74 % 1017,6 hPa 0,0 mm 0,0 km/h (0 Bft) O-NO 67 0 min -5,8 C 0,0 km/h (0 Bft)
19.03.2016 00:25 -2,1 C -2,6 C 74 % 1017,6 hPa 0,0 mm 0,0 km/h (0 Bft) N-NW 337 0 min -6,1 C 0,0 km/h (0 Bft)
19.03.2016 00:30 -2,1 C -2,7 C 74 % 1017,7 hPa 0,0 mm 0,0 km/h (0 Bft) O-NO 67 0 min -6,1 C 0,0 km/h (0 Bft)
19.03.2016 00:35 -2,3 C -2,8 C 75 % 1017,7 hPa 0,0 mm 0,0 km/h (0 Bft) O-NO 67 0 min -6,1 C 0,0 km/h (0 Bft)
19.03.2016 00:40 -2,2 C -2,8 C 75 % 1017,7 hPa 0,0 mm 0,0 km/h (0 Bft) O-NO 67 0 min -6,0 C 0,0 km/h (0 Bft)
19.03.2016 00:45 -2,2 C -2,8 C 76 % 1017,7 hPa 0,0 mm 0,0 km/h (0 Bft) NO 45 0 min -5,8 C 0,0 km/h (0 Bft)
19.03.2016 00:50 -1,8 C -2,5 C 77 % 1017,6 hPa 0,0 mm 0,0 km/h (0 Bft) NO 45 0 min -5,3 C 0,0 km/h (0 Bft)
19.03.2016 00:55 -1,8 C -2,4 C 77 % 1017,6 hPa 0,0 mm 0,0 km/h (0 Bft) S-SO 157 0 min -5,3 C 0,0 km/h (0 Bft)
19.03.2016 01:00 -1,7 C -2,2 C 74 % 1017,6 hPa 0,0 mm 0,0 km/h (0 Bft) S-SO 157 0 min -5,7 C 0,0 km/h (0 Bft)
19.03.2016 01:05 -1,3 C -1,8 C 74 % 1017,6 hPa 0,0 mm 0,0 km/h (0 Bft) S-SO 157 0 min -5,3 C 0,0 km/h (0 Bft)
19.03.2016 01:10 -1,2 C -1,6 C 74 % 1017,4 hPa 0,0 mm 0,0 km/h (0 Bft) O-NO 67 0 min -5,2 C 0,0 km/h (0 Bft)
19.03.2016 01:15 -1,5 C -1,9 C 79 % 1017,4 hPa 0,0 mm 0,0 km/h (0 Bft) NO 45 0 min -4,7 C 0,0 km/h (0 Bft)
19.03.2016 01:20 -1,3 C -1,9 C 79 % 1017,4 hPa 0,0 mm 0,0 km/h (0 Bft) NW 315 0 min -4,5 C 0,0 km/h (0 Bft)
19.03.2016 01:25 -1,7 C -2,2 C 78 % 1017,4 hPa 0,0 mm 0,0 km/h (0 Bft) N-NO 22 0 min -5,0 C 0,0 km/h (0 Bft)
19.03.2016 01:30 -1,8 C -2,3 C 78 % 1017,3 hPa 0,0 mm 0,0 km/h (0 Bft) N-NO 22 0 min -5,1 C 0,0 km/h (0 Bft)
19.03.2016 01:35 -1,8 C -2,4 C 78 % 1017,3 hPa 0,0 mm 0,0 km/h (0 Bft) O-NO 67 0 min -5,1 C 0,0 km/h (0 Bft)
19.03.2016 01:40 -2,0 C -2,5 C 78 % 1017,3 hPa 0,0 mm 0,0 km/h (0 Bft) N 360 0 min -5,3 C 0,0 km/h (0 Bft)
19.03.2016 01:45 -2,1 C -2,6 C 78 % 1017,3 hPa 0,0 mm 0,0 km/h (0 Bft) S-SO 157 0 min -5,4 C 0,0 km/h (0 Bft)
19.03.2016 01:50 -1,7 C -2,4 C 78 % 1017,4 hPa 0,0 mm 0,0 km/h (0 Bft) S-SW 202 0 min -5,0 C 0,0 km/h (0 Bft)
19.03.2016 01:55 -1,9 C -2,5 C 78 % 1017,4 hPa 0,0 mm 0,0 km/h (0 Bft) N-NW 337 0 min -5,2 C 0,0 km/h (0 Bft)
19.03.2016 02:00 -2,0 C -2,6 C 78 % 1017,4 hPa 0,0 mm 0,0 km/h (0 Bft) NW 315 0 min -5,3 C 0,0 km/h (0 Bft)
19.03.2016 02:05 -2,3 C -2,8 C 78 % 1017,4 hPa 0,0 mm 0,0 km/h (0 Bft) NO 45 0 min -5,6 C 0,0 km/h (0 Bft)
19.03.2016 02:10 -2,4 C -3,0 C 78 % 1017,2 hPa 0,0 mm 0,0 km/h (0 Bft) NO 45 0 min -5,7 C 0,0 km/h (0 Bft)
19.03.2016 02:15 -2,2 C -2,8 C 78 % 1017,2 hPa 0,0 mm 0,0 km/h (0 Bft) O 90 0 min -5,5 C 0,0 km/h (0 Bft)
19.03.2016 02:20 -2,2 C -2,8 C 79 % 1017,2 hPa 0,0 mm 0,0 km/h (0 Bft) O 90 0 min -5,3 C 0,0 km/h (0 Bft)
19.03.2016 02:22 -2,2 C -2,8 C 79 % 1017,2 hPa 0,0 mm 0,0 km/h (0 Bft) O 90 0 min -5,3 C 0,0 km/h (0 Bft)
19.03.2016 02:25 -2,4 C -2,9 C 79 % 1017,2 hPa 0,0 mm 0,0 km/h (0 Bft) O-NO 67 0 min -5,5 C 0,0 km/h (0 Bft)
19.03.2016 02:30 -2,3 C -2,8 C 79 % 1017,2 hPa 0,0 mm 0,0 km/h (0 Bft) O-SO 112 0 min -5,4 C 0,0 km/h (0 Bft)
19.03.2016 02:35 -2,7 C -3,1 C 79 % 1017,2 hPa 0,0 mm 0,0 km/h (0 Bft) O-SO 112 0 min -5,8 C 0,0 km/h (0 Bft)
19.03.2016 02:40 -2,7 C -3,2 C 79 % 1017,2 hPa 0,0 mm 0,0 km/h (0 Bft) O-NO 67 0 min -5,8 C 0,0 km/h (0 Bft)
19.03.2016 02:45 -2,9 C -3,3 C 79 % 1017,2 hPa 0,0 mm 0,0 km/h (0 Bft) O-NO 67 0 min -6,0 C 0,0 km/h (0 Bft)
19.03.2016 02:50 -3,1 C -3,5 C 79 % 1017,2 hPa 0,0 mm 0,0 km/h (0 Bft) O-NO 67 0 min -6,2 C 0,0 km/h (0 Bft)
19.03.2016 02:55 -3,1 C -3,5 C 79 % 1017,2 hPa 0,0 mm 0,0 km/h (0 Bft) NO 45 0 min -6,2 C 0,0 km/h (0 Bft)
19.03.2016 03:00 -3,2 C -3,6 C 79 % 1017,2 hPa 0,0 mm 0,0 km/h (0 Bft) O-NO 67 0 min -6,3 C 0,0 km/h (0 Bft)
19.03.2016 03:05 -3,2 C -3,7 C 79 % 1017,2 hPa 0,0 mm 0,0 km/h (0 Bft) NO 45 0 min -6,3 C 0,0 km/h (0 Bft)
19.03.2016 03:10 -3,2 C -3,7 C 79 % 1016,8 hPa 0,0 mm 0,0 km/h (0 Bft) O-NO 67 0 min -6,3 C 0,0 km/h (0 Bft)
19.03.2016 03:15 -3,1 C -3,6 C 79 % 1016,8 hPa 0,0 mm 0,0 km/h (0 Bft) SO 135 0 min -6,2 C 0,0 km/h (0 Bft)
19.03.2016 03:20 -3,1 C -3,6 C 79 % 1016,8 hPa 0,0 mm 0,0 km/h (0 Bft) O-NO 67 0 min -6,2 C 0,0 km/h (0 Bft)
19.03.2016 03:25 -2,8 C -3,3 C 80 % 1016,8 hPa 0,0 mm 0,0 km/h (0 Bft) O-SO 112 0 min -5,8 C 0,0 km/h (0 Bft)
19.03.2016 03:30 -2,7 C -3,2 C 81 % 1016,8 hPa 0,0 mm 0,0 km/h (0 Bft) NO 45 0 min -5,5 C 0,0 km/h (0 Bft)
19.03.2016 03:35 -2,5 C -3,0 C 81 % 1016,8 hPa 0,0 mm 0,0 km/h (0 Bft) O 90 0 min -5,3 C 0,0 km/h (0 Bft)
19.03.2016 03:40 -2,3 C -2,9 C 82 % 1016,8 hPa 0,0 mm 0,0 km/h (0 Bft) NO 45 0 min -4,9 C 0,0 km/h (0 Bft)
19.03.2016 03:45 -2,5 C -3,0 C 82 % 1016,8 hPa 0,0 mm 0,0 km/h (0 Bft) O-NO 67 0 min -5,1 C 0,0 km/h (0 Bft)
19.03.2016 03:50 -2,7 C -3,2 C 81 % 1016,7 hPa 0,0 mm 0,0 km/h (0 Bft) O-NO 67 0 min -5,5 C 0,0 km/h (0 Bft)
19.03.2016 03:55 -2,7 C -3,2 C 81 % 1016,7 hPa 0,0 mm 0,0 km/h (0 Bft) NO 45 0 min -5,5 C 0,0 km/h (0 Bft)
19.03.2016 04:00 -2,8 C -3,3 C 81 % 1016,7 hPa 0,0 mm 0,0 km/h (0 Bft) NO 45 0 min -5,6 C 0,0 km/h (0 Bft)
19.03.2016 04:05 -2,8 C -3,3 C 82 % 1016,7 hPa 0,0 mm 0,0 km/h (0 Bft) W 270 0 min -5,4 C 0,0 km/h (0 Bft)
19.03.2016 04:10 -2,8 C -3,2 C 81 % 1016,4 hPa 0,0 mm 0,0 km/h (0 Bft) S 180 0 min -5,6 C 0,0 km/h (0 Bft)
19.03.2016 04:15 -2,6 C -3,1 C 82 % 1016,4 hPa 0,0 mm 0,0 km/h (0 Bft) NO 45 0 min -5,2 C 0,0 km/h (0 Bft)
19.03.2016 04:20 -2,6 C -2,9 C 78 % 1016,4 hPa 0,0 mm 0,0 km/h (0 Bft) NO 45 0 min -5,9 C 0,0 km/h (0 Bft)
19.03.2016 04:25 -2,5 C -2,8 C 78 % 1016,4 hPa 0,0 mm 0,0 km/h (0 Bft) O-NO 67 0 min -5,8 C 0,0 km/h (0 Bft)
19.03.2016 04:30 -2,5 C -2,8 C 78 % 1016,4 hPa 0,0 mm 0,0 km/h (0 Bft) NO 45 0 min -5,8 C 0,0 km/h (0 Bft)
19.03.2016 04:35 -2,6 C -3,0 C 82 % 1016,4 hPa 0,0 mm 0,0 km/h (0 Bft) O-NO 67 0 min -5,2 C 0,0 km/h (0 Bft)
19.03.2016 04:40 -2,5 C -3,0 C 82 % 1016,4 hPa 0,0 mm 0,0 km/h (0 Bft) O-NO 67 0 min -5,1 C 0,0 km/h (0 Bft)
19.03.2016 04:45 -2,5 C -3,0 C 82 % 1016,4 hPa 0,0 mm 0,0 km/h (0 Bft) NO 45 0 min -5,1 C 0,0 km/h (0 Bft)
19.03.2016 04:50 -2,5 C -3,0 C 82 % 1016,2 hPa 0,0 mm 0,0 km/h (0 Bft) O-SO 112 0 min -5,1 C 0,0 km/h (0 Bft)
19.03.2016 04:55 -2,7 C -3,1 C 82 % 1016,2 hPa 0,0 mm 0,0 km/h (0 Bft) W-SW 247 0 min -5,3 C 0,0 km/h (0 Bft)
19.03.2016 05:00 -2,6 C -3,1 C 82 % 1016,2 hPa 0,0 mm 0,0 km/h (0 Bft) SO 135 0 min -5,2 C 0,0 km/h (0 Bft)
19.03.2016 05:05 -2,5 C -2,6 C 78 % 1016,2 hPa 0,0 mm 0,0 km/h (0 Bft) N-NO 22 0 min -5,8 C 0,0 km/h (0 Bft)
19.03.2016 05:10 -2,2 C -2,4 C 78 % 1016,1 hPa 0,0 mm 0,0 km/h (0 Bft) SO 135 0 min -5,5 C 0,0 km/h (0 Bft)
19.03.2016 05:15 -1,8 C -2,1 C 79 % 1016,1 hPa 0,0 mm 0,0 km/h (0 Bft) N-NO 22 0 min -4,9 C 0,0 km/h (0 Bft)
19.03.2016 05:20 -1,7 C -2,1 C 79 % 1016,1 hPa 0,0 mm 0,0 km/h (0 Bft) SW 225 0 min -4,8 C 0,0 km/h (0 Bft)
19.03.2016 05:23 -1,7 C -2,1 C 79 % 1016,1 hPa 0,0 mm 0,0 km/h (0 Bft) SW 225 0 min -4,8 C 0,0 km/h (0 Bft)
19.03.2016 05:25 -1,3 C -1,9 C 83 % 1016,1 hPa 0,0 mm 0,0 km/h (0 Bft) W-NW 292 0 min -3,8 C 0,0 km/h (0 Bft)
19.03.2016 05:30 -1,6 C -2,1 C 83 % 1016,1 hPa 0,0 mm 0,0 km/h (0 Bft) SO 135 0 min -4,1 C 0,0 km/h (0 Bft)
19.03.2016 05:35 -1,4 C -2,0 C 83 % 1016,1 hPa 0,0 mm 0,0 km/h (0 Bft) O 90 0 min -3,9 C 0,0 km/h (0 Bft)
19.03.2016 05:40 -1,6 C -2,1 C 83 % 1016,1 hPa 0,0 mm 0,0 km/h (0 Bft) O-SO 112 0 min -4,1 C 0,0 km/h (0 Bft)
19.03.2016 05:45 -1,9 C -2,3 C 82 % 1016,1 hPa 0,0 mm 0,0 km/h (0 Bft) N-NO 22 0 min -4,6 C 0,0 km/h (0 Bft)
19.03.2016 05:50 -2,1 C -2,5 C 82 % 1016,0 hPa 0,0 mm 0,0 km/h (0 Bft) NO 45 0 min -4,7 C 0,0 km/h (0 Bft)
19.03.2016 05:55 -2,1 C -2,6 C 82 % 1016,0 hPa 0,0 mm 0,0 km/h (0 Bft) N-NO 22 0 min -4,7 C 0,0 km/h (0 Bft)
19.03.2016 06:00 -2,3 C -2,7 C 81 % 1016,0 hPa 0,0 mm 0,0 km/h (0 Bft) N-NW 337 0 min -5,1 C 0,0 km/h (0 Bft)
19.03.2016 06:05 -2,4 C -2,8 C 81 % 1016,0 hPa 0,0 mm 0,0 km/h (0 Bft) O-SO 112 0 min -5,2 C 0,0 km/h (0 Bft)
19.03.2016 06:10 -2,6 C -3,0 C 81 % 1016,2 hPa 0,0 mm 0,0 km/h (0 Bft) O-NO 67 0 min -5,4 C 0,0 km/h (0 Bft)
19.03.2016 06:15 -2,5 C -3,0 C 81 % 1016,2 hPa 0,0 mm 0,0 km/h (0 Bft) NO 45 0 min -5,3 C 0,0 km/h (0 Bft)
19.03.2016 06:20 -2,3 C -2,9 C 81 % 1016,2 hPa 0,0 mm 0,0 km/h (0 Bft) O 90 0 min -5,1 C 0,0 km/h (0 Bft)
19.03.2016 06:25 -2,1 C -2,6 C 78 % 1016,2 hPa 0,0 mm 0,0 km/h (0 Bft) N-NW 337 0 min -5,4 C 0,0 km/h (0 Bft)
19.03.2016 06:30 -2,0 C -2,6 C 78 % 1015,9 hPa 0,0 mm 0,0 km/h (0 Bft) O-NO 67 0 min -5,3 C 0,0 km/h (0 Bft)
19.03.2016 06:35 -2,4 C -2,9 C 81 % 1015,9 hPa 0,0 mm 0,0 km/h (0 Bft) N-NO 22 0 min -5,2 C 0,0 km/h (0 Bft)
19.03.2016 06:40 -2,5 C -2,9 C 81 % 1015,9 hPa 0,0 mm 0,0 km/h (0 Bft) O-NO 67 0 min -5,3 C 0,0 km/h (0 Bft)
19.03.2016 06:45 -2,2 C -2,7 C 81 % 1015,9 hPa 0,0 mm 0,0 km/h (0 Bft) NO 45 0 min -5,0 C 0,0 km/h (0 Bft)
19.03.2016 06:50 -2,2 C -2,6 C 82 % 1016,1 hPa 0,0 mm 0,0 km/h (0 Bft) N-NW 337 0 min -4,8 C 0,0 km/h (0 Bft)
19.03.2016 06:55 -2,1 C -2,3 C 78 % 1016,1 hPa 0,0 mm 0,3 km/h (0 Bft) NW 315 0 min -5,4 C 0,0 km/h (0 Bft)
19.03.2016 07:00 -1,8 C -2,2 C 78 % 1016,1 hPa 0,0 mm 0,3 km/h (0 Bft) O 90 0 min -5,1 C 0,0 km/h (0 Bft)
19.03.2016 07:05 -1,7 C -2,2 C 82 % 1016,1 hPa 0,0 mm 0,0 km/h (0 Bft) NO 45 0 min -4,4 C 0,0 km/h (0 Bft)
19.03.2016 07:10 -1,6 C -2,1 C 82 % 1016,1 hPa 0,0 mm 0,0 km/h (0 Bft) O-NO 67 0 min -4,3 C 0,0 km/h (0 Bft)
19.03.2016 07:15 -1,7 C -2,1 C 82 % 1016,1 hPa 0,0 mm 0,0 km/h (0 Bft) NO 45 0 min -4,4 C 0,0 km/h (0 Bft)
19.03.2016 07:20 -1,5 C -2,0 C 82 % 1016,1 hPa 0,0 mm 0,0 km/h (0 Bft) O-NO 67 0 min -4,2 C 0,0 km/h (0 Bft)
19.03.2016 07:25 -1,3 C -1,8 C 82 % 1016,1 hPa 0,0 mm 0,0 km/h (0 Bft) SO 135 0 min -4,0 C 0,0 km/h (0 Bft)
19.03.2016 07:30 -1,1 C -1,5 C 78 % 1016,3 hPa 0,0 mm 0,0 km/h (0 Bft) O-NO 67 0 min -4,4 C 0,0 km/h (0 Bft)
19.03.2016 07:35 -1,0 C -1,4 C 78 % 1016,3 hPa 0,0 mm 0,0 km/h (0 Bft) O-NO 67 0 min -4,3 C 0,0 km/h (0 Bft)
19.03.2016 07:40 -0,9 C -1,2 C 82 % 1016,3 hPa 0,0 mm 0,0 km/h (0 Bft) O-SO 112 0 min -3,6 C 0,0 km/h (0 Bft)
19.03.2016 07:45 -0,6 C 0,9 C 78 % 1016,3 hPa 0,0 mm 0,0 km/h (0 Bft) NO 45 0 min -3,9 C 0,0 km/h (0 Bft)
19.03.2016 07:50 -0,5 C 2,3 C 78 % 1016,5 hPa 0,0 mm 0,0 km/h (0 Bft) O-NO 67 5 min -3,9 C 0,0 km/h (0 Bft)
19.03.2016 07:55 -0,2 C 3,8 C 78 % 1016,5 hPa 0,0 mm 0,0 km/h (0 Bft) O-NO 67 5 min -3,6 C 0,0 km/h (0 Bft)
19.03.2016 08:00 0,0 C 5,8 C 78 % 1016,5 hPa 0,0 mm 0,0 km/h (0 Bft) O-SO 112 5 min -3,4 C 0,0 km/h (0 Bft)
19.03.2016 08:05 0,3 C 7,8 C 77 % 1016,5 hPa 0,0 mm 0,0 km/h (0 Bft) SO 135 5 min -3,2 C 0,0 km/h (0 Bft)
19.03.2016 08:10 0,5 C 8,6 C 77 % 1016,5 hPa 0,0 mm 0,0 km/h (0 Bft) O-SO 112 5 min -3,1 C 0,0 km/h (0 Bft)
19.03.2016 08:15 0,9 C 10,0 C 77 % 1016,5 hPa 0,0 mm 0,0 km/h (0 Bft) O-SO 112 5 min -2,7 C 0,0 km/h (0 Bft)
19.03.2016 08:20 1,1 C 10,2 C 77 % 1016,5 hPa 0,0 mm 0,0 km/h (0 Bft) O-SO 112 5 min -2,5 C 0,0 km/h (0 Bft)
19.03.2016 08:24 1,7 C 11,1 C 76 % 1016,5 hPa 0,0 mm 0,0 km/h (0 Bft) O 90 4 min -2,1 C 0,0 km/h (0 Bft)
19.03.2016 08:25 1,7 C 11,1 C 76 % 1016,5 hPa 0,0 mm 0,0 km/h (0 Bft) O 90 1 min -2,1 C 0,0 km/h (0 Bft)
19.03.2016 08:30 2,0 C 12,1 C 76 % 1016,7 hPa 0,0 mm 0,0 km/h (0 Bft) O-NO 67 5 min -1,8 C 0,0 km/h (0 Bft)
19.03.2016 08:35 2,9 C 12,9 C 75 % 1016,7 hPa 0,0 mm 0,0 km/h (0 Bft) O-NO 67 5 min -1,1 C 0,0 km/h (0 Bft)
19.03.2016 08:40 3,3 C 13,4 C 73 % 1016,7 hPa 0,0 mm 0,0 km/h (0 Bft) O-NO 67 5 min -1,1 C 0,0 km/h (0 Bft)
19.03.2016 08:45 4,0 C 14,4 C 72 % 1016,7 hPa 0,0 mm 0,0 km/h (0 Bft) O-NO 67 5 min -0,6 C 0,0 km/h (0 Bft)
19.03.2016 08:50 4,3 C 14,8 C 71 % 1017,3 hPa 0,0 mm 0,0 km/h (0 Bft) O-NO 67 5 min -0,5 C 0,0 km/h (0 Bft)
19.03.2016 08:55 4,8 C 15,9 C 70 % 1017,3 hPa 0,0 mm 0,0 km/h (0 Bft) O-NO 67 5 min -0,2 C 0,0 km/h (0 Bft)
19.03.2016 09:00 5,0 C 16,3 C 69 % 1017,3 hPa 0,0 mm 0,0 km/h (0 Bft) O-NO 67 5 min -0,2 C 0,0 km/h (0 Bft)
19.03.2016 09:05 5,6 C 16,1 C 68 % 1017,3 hPa 0,0 mm 0,0 km/h (0 Bft) O-NO 67 5 min 0,2 C 0,0 km/h (0 Bft)
19.03.2016 09:10 6,0 C 16,3 C 66 % 1017,9 hPa 0,0 mm 0,0 km/h (0 Bft) O-NO 67 5 min 0,1 C 0,0 km/h (0 Bft)
19.03.2016 09:15 6,8 C 16,7 C 65 % 1017,9 hPa 0,0 mm 0,0 km/h (0 Bft) O-NO 67 5 min 0,7 C 0,0 km/h (0 Bft)
19.03.2016 09:20 7,2 C 17,5 C 64 % 1017,9 hPa 0,0 mm 0,0 km/h (0 Bft) O-NO 67 5 min 0,9 C 0,0 km/h (0 Bft)
19.03.2016 09:25 7,3 C 18,6 C 62 % 1017,9 hPa 0,0 mm 0,0 km/h (0 Bft) O-NO 67 5 min 0,5 C 0,0 km/h (0 Bft)
19.03.2016 09:30 7,5 C 18,7 C 61 % 1018,5 hPa 0,0 mm 0,0 km/h (0 Bft) O-NO 67 5 min 0,5 C 0,0 km/h (0 Bft)
19.03.2016 09:35 7,9 C 19,1 C 60 % 1018,5 hPa 0,0 mm 0,0 km/h (0 Bft) O-NO 67 5 min 0,6 C 0,0 km/h (0 Bft)
19.03.2016 09:40 8,1 C 19,6 C 59 % 1018,5 hPa 0,0 mm 0,0 km/h (0 Bft) O-NO 67 5 min 0,6 C 0,0 km/h (0 Bft)
19.03.2016 09:45 8,0 C 19,0 C 58 % 1018,5 hPa 0,0 mm 0,0 km/h (0 Bft) O-NO 67 5 min 0,3 C 0,0 km/h (0 Bft)
19.03.2016 09:50 7,9 C 17,9 C 56 % 1018,8 hPa 0,0 mm 0,0 km/h (0 Bft) O-NO 67 5 min -0,3 C 0,0 km/h (0 Bft)
19.03.2016 09:55 8,4 C 17,7 C 56 % 1018,8 hPa 0,0 mm 0,0 km/h (0 Bft) O-NO 67 5 min 0,1 C 0,0 km/h (0 Bft)
19.03.2016 10:00 8,7 C 17,7 C 57 % 1018,8 hPa 0,0 mm 0,9 km/h (0 Bft) O-NO 67 5 min 0,7 C 0,0 km/h (0 Bft)
19.03.2016 10:05 9,2 C 17,7 C 56 % 1018,8 hPa 0,0 mm 3,0 km/h (1 Bft) O-NO 67 5 min 0,9 C 11,3 km/h (2 Bft)
19.03.2016 10:10 9,4 C 17,2 C 56 % 1019,2 hPa 0,0 mm 4,2 km/h (1 Bft) NW 315 5 min 1,1 C 3,0 km/h (1 Bft)
19.03.2016 10:15 10,0 C 16,9 C 56 % 1019,2 hPa 0,0 mm 5,4 km/h (1 Bft) N-NW 337 5 min 1,6 C 14,0 km/h (3 Bft)
19.03.2016 10:20 10,0 C 16,7 C 55 % 1019,2 hPa 0,0 mm 4,8 km/h (1 Bft) NW 315 5 min 1,4 C 6,6 km/h (2 Bft)
19.03.2016 10:25 10,2 C 16,2 C 54 % 1019,2 hPa 0,0 mm 7,2 km/h (2 Bft) W 270 5 min 1,3 C 8,3 km/h (2 Bft)
19.03.2016 10:30 9,8 C 16,0 C 53 % 1019,2 hPa 0,0 mm 7,5 km/h (2 Bft) W 270 5 min 0,7 C 7,2 km/h (2 Bft)
19.03.2016 10:35 9,6 C 15,9 C 52 % 1019,2 hPa 0,0 mm 7,2 km/h (2 Bft) SW 225 5 min 0,2 C 6,3 km/h (2 Bft)
19.03.2016 10:40 9,3 C 15,9 C 52 % 1019,2 hPa 0,0 mm 7,7 km/h (2 Bft) W-SW 247 5 min -0,0 C 14,0 km/h (3 Bft)
19.03.2016 10:45 9,4 C 15,4 C 52 % 1019,2 hPa 0,0 mm 8,6 km/h (2 Bft) W 270 5 min 0,1 C 14,6 km/h (3 Bft)
19.03.2016 10:50 9,7 C 15,4 C 53 % 1019,2 hPa 0,0 mm 8,3 km/h (2 Bft) W 270 5 min 0,6 C 5,4 km/h (1 Bft)
19.03.2016 10:55 10,2 C 15,7 C 52 % 1019,2 hPa 0,0 mm 6,6 km/h (2 Bft) NW 315 5 min 0,8 C 8,0 km/h (2 Bft)
19.03.2016 11:00 10,2 C 15,8 C 52 % 1019,2 hPa 0,0 mm 6,9 km/h (2 Bft) W-SW 247 5 min 0,8 C 6,3 km/h (2 Bft)
19.03.2016 11:05 9,9 C 16,3 C 50 % 1019,2 hPa 0,0 mm 6,6 km/h (2 Bft) W 270 5 min -0,0 C 6,6 km/h (2 Bft)
19.03.2016 11:10 10,0 C 16,6 C 51 % 1019,4 hPa 0,0 mm 5,7 km/h (1 Bft) W-NW 292 5 min 0,3 C 5,1 km/h (1 Bft)
19.03.2016 11:15 10,5 C 16,9 C 52 % 1019,4 hPa 0,0 mm 5,1 km/h (1 Bft) W 270 5 min 1,1 C 4,5 km/h (1 Bft)
19.03.2016 11:20 10,2 C 17,4 C 49 % 1019,4 hPa 0,0 mm 4,8 km/h (1 Bft) SW 225 5 min -0,0 C 7,2 km/h (2 Bft)
19.03.2016 11:23 10,4 C 17,7 C 50 % 1019,4 hPa 0,0 mm 3,6 km/h (1 Bft) W-NW 292 3 min 0,4 C 3,3 km/h (1 Bft)
19.03.2016 11:25 10,4 C 17,7 C 50 % 1019,4 hPa 0,0 mm 3,6 km/h (1 Bft) W-NW 292 2 min 0,4 C 3,3 km/h (1 Bft)
19.03.2016 11:30 10,8 C 17,7 C 51 % 1019,2 hPa 0,0 mm 3,9 km/h (1 Bft) O-NO 67 5 min 1,1 C 0,0 km/h (0 Bft)
19.03.2016 11:35 11,1 C 18,8 C 49 % 1019,2 hPa 0,0 mm 1,8 km/h (1 Bft) NW 315 5 min 0,8 C 3,3 km/h (1 Bft)
19.03.2016 11:40 11,5 C 19,1 C 50 % 1019,2 hPa 0,0 mm 2,4 km/h (1 Bft) N-NW 337 5 min 1,4 C 14,9 km/h (3 Bft)
19.03.2016 11:45 11,6 C 18,1 C 50 % 1019,2 hPa 0,0 mm 6,0 km/h (2 Bft) NW 315 5 min 1,5 C 11,6 km/h (2 Bft)
19.03.2016 11:50 11,5 C 17,7 C 50 % 1019,2 hPa 0,0 mm 7,5 km/h (2 Bft) SW 225 5 min 1,4 C 6,0 km/h (2 Bft)
19.03.2016 11:55 11,6 C 17,7 C 49 % 1019,2 hPa 0,0 mm 5,1 km/h (1 Bft) SO 135 5 min 1,3 C 0,0 km/h (0 Bft)
19.03.2016 12:00 11,7 C 17,8 C 50 % 1019,2 hPa 0,0 mm 5,7 km/h (1 Bft) W 270 5 min 1,6 C 11,9 km/h (2 Bft)
19.03.2016 12:05 11,3 C 17,0 C 48 % 1019,2 hPa 0,0 mm 6,9 km/h (2 Bft) W-SW 247 5 min 0,7 C 13,7 km/h (3 Bft)
19.03.2016 12:10 11,1 C 16,4 C 48 % 1019,1 hPa 0,0 mm 6,0 km/h (2 Bft) SW 225 5 min 0,5 C 4,2 km/h (1 Bft)
19.03.2016 12:15 11,0 C 15,3 C 48 % 1019,1 hPa 0,0 mm 7,2 km/h (2 Bft) W 270 0 min 0,4 C 14,0 km/h (3 Bft)
19.03.2016 12:20 11,1 C 14,9 C 48 % 1019,1 hPa 0,0 mm 6,9 km/h (2 Bft) W 270 0 min 0,5 C 8,6 km/h (2 Bft)
19.03.2016 12:25 10,8 C 14,8 C 47 % 1019,1 hPa 0,0 mm 6,9 km/h (2 Bft) SW 225 0 min -0,1 C 10,1 km/h (2 Bft)
19.03.2016 12:30 10,9 C 15,1 C 48 % 1018,9 hPa 0,0 mm 6,9 km/h (2 Bft) W-NW 292 0 min 0,3 C 6,3 km/h (2 Bft)
19.03.2016 12:35 11,1 C 15,9 C 47 % 1018,9 hPa 0,0 mm 6,0 km/h (2 Bft) W 270 0 min 0,2 C 8,0 km/h (2 Bft)
19.03.2016 12:40 11,3 C 16,8 C 47 % 1018,9 hPa 0,0 mm 6,6 km/h (2 Bft) N-NO 22 0 min 0,4 C 11,0 km/h (2 Bft)
19.03.2016 12:45 11,3 C 17,3 C 47 % 1018,9 hPa 0,0 mm 6,6 km/h (2 Bft) NW 315 5 min 0,4 C 4,5 km/h (1 Bft)
19.03.2016 12:50 12,1 C 18,0 C 46 % 1018,9 hPa 0,0 mm 5,7 km/h (1 Bft) S-SW 202 5 min 0,8 C 6,0 km/h (2 Bft)
19.03.2016 12:55 11,3 C 18,0 C 45 % 1018,9 hPa 0,0 mm 6,6 km/h (2 Bft) W-SW 247 5 min -0,2 C 5,4 km/h (1 Bft)
19.03.2016 13:00 11,7 C 18,0 C 46 % 1018,9 hPa 0,0 mm 7,5 km/h (2 Bft) NW 315 5 min 0,5 C 7,7 km/h (2 Bft)
19.03.2016 13:05 11,8 C 17,7 C 46 % 1018,9 hPa 0,0 mm 7,7 km/h (2 Bft) W 270 5 min 0,6 C 7,7 km/h (2 Bft)
19.03.2016 13:10 11,7 C 17,9 C 44 % 1018,5 hPa 0,0 mm 7,5 km/h (2 Bft) W-SW 247 5 min -0,1 C 7,7 km/h (2 Bft)
19.03.2016 13:15 11,8 C 18,4 C 45 % 1018,5 hPa 0,0 mm 5,4 km/h (1 Bft) W 270 5 min 0,3 C 8,9 km/h (2 Bft)
19.03.2016 13:20 12,0 C 18,1 C 45 % 1018,5 hPa 0,0 mm 7,5 km/h (2 Bft) NW 315 5 min 0,4 C 13,4 km/h (3 Bft)
19.03.2016 13:25 12,3 C 17,5 C 45 % 1018,5 hPa 0,0 mm 8,3 km/h (2 Bft) W 270 5 min 0,7 C 18,8 km/h (3 Bft)
19.03.2016 13:30 12,6 C 18,2 C 44 % 1018,2 hPa 0,0 mm 5,1 km/h (1 Bft) N-NO 22 5 min 0,7 C 5,4 km/h (1 Bft)
19.03.2016 13:35 12,9 C 19,0 C 44 % 1018,2 hPa 0,0 mm 3,6 km/h (1 Bft) SO 135 5 min 1,0 C 0,0 km/h (0 Bft)
19.03.2016 13:40 12,8 C 19,3 C 43 % 1018,2 hPa 0,0 mm 3,3 km/h (1 Bft) N-NW 337 5 min 0,5 C 11,6 km/h (2 Bft)
19.03.2016 13:45 13,0 C 19,0 C 42 % 1018,2 hPa 0,0 mm 4,8 km/h (1 Bft) W 270 5 min 0,4 C 6,9 km/h (2 Bft)
19.03.2016 13:50 13,1 C 18,9 C 42 % 1017,9 hPa 0,0 mm 6,3 km/h (2 Bft) NW 315 5 min 0,5 C 4,5 km/h (1 Bft)
19.03.2016 13:55 12,6 C 19,2 C 42 % 1017,9 hPa 0,0 mm 5,1 km/h (1 Bft) W-NW 292 5 min 0,0 C 9,2 km/h (2 Bft)
19.03.2016 14:00 12,7 C 18,9 C 43 % 1017,9 hPa 0,0 mm 6,0 km/h (2 Bft) W 270 5 min 0,5 C 6,6 km/h (2 Bft)
19.03.2016 14:05 13,2 C 18,2 C 41 % 1017,9 hPa 0,0 mm 8,6 km/h (2 Bft) O-NO 67 5 min 0,2 C 9,2 km/h (2 Bft)
19.03.2016 14:10 13,1 C 18,1 C 40 % 1017,8 hPa 0,0 mm 8,0 km/h (2 Bft) W-NW 292 5 min -0,2 C 5,1 km/h (1 Bft)
19.03.2016 14:15 13,0 C 18,6 C 40 % 1017,8 hPa 0,0 mm 6,0 km/h (2 Bft) W 270 5 min -0,3 C 7,2 km/h (2 Bft)
19.03.2016 14:20 12,8 C 18,5 C 41 % 1017,8 hPa 0,0 mm 4,8 km/h (1 Bft) S-SO 157 5 min -0,1 C 0,0 km/h (0 Bft)
19.03.2016 14:23 13,2 C 19,0 C 40 % 1017,8 hPa 0,0 mm 4,5 km/h (1 Bft) W-NW 292 3 min -0,1 C 11,9 km/h (2 Bft)
19.03.2016 14:26 13,2 C 19,0 C 40 % 1017,8 hPa 0,0 mm 4,5 km/h (1 Bft) W-NW 292 3 min -0,1 C 11,9 km/h (2 Bft)
19.03.2016 14:30 13,2 C 18,5 C 40 % 1017,5 hPa 0,0 mm 6,3 km/h (2 Bft) NW 315 4 min -0,1 C 15,2 km/h (3 Bft)
19.03.2016 14:35 13,4 C 18,0 C 39 % 1017,5 hPa 0,0 mm 8,3 km/h (2 Bft) W-SW 247 5 min -0,3 C 20,3 km/h (4 Bft)
19.03.2016 14:40 13,5 C 17,8 C 39 % 1017,5 hPa 0,0 mm 9,5 km/h (2 Bft) N-NW 337 5 min -0,2 C 11,3 km/h (2 Bft)
19.03.2016 14:45 13,6 C 17,5 C 39 % 1017,5 hPa 0,0 mm 8,6 km/h (2 Bft) NW 315 5 min -0,1 C 6,6 km/h (2 Bft)
19.03.2016 14:50 13,4 C 17,5 C 39 % 1017,4 hPa 0,0 mm 8,0 km/h (2 Bft) W-NW 292 5 min -0,3 C 6,6 km/h (2 Bft)
19.03.2016 14:55 13,4 C 17,3 C 39 % 1017,4 hPa 0,0 mm 8,6 km/h (2 Bft) N-NW 337 5 min -0,3 C 8,0 km/h (2 Bft)
19.03.2016 15:00 13,4 C 17,3 C 39 % 1017,4 hPa 0,0 mm 8,9 km/h (2 Bft) W-NW 292 5 min -0,3 C 9,8 km/h (2 Bft)
19.03.2016 15:05 12,8 C 17,9 C 39 % 1017,4 hPa 0,0 mm 6,0 km/h (2 Bft) W-SW 247 5 min -0,8 C 6,6 km/h (2 Bft)
19.03.2016 15:10 12,8 C 18,3 C 40 % 1017,1 hPa 0,0 mm 4,2 km/h (1 Bft) W 270 5 min -0,5 C 6,6 km/h (2 Bft)
19.03.2016 15:16 13,3 C 17,6 C 38 % 1017,1 hPa 0,0 mm 8,6 km/h (2 Bft) NW 315 5 min -0,7 C 24,4 km/h (4 Bft)
19.03.2016 15:17 13,3 C 17,6 C 38 % 1017,1 hPa 0,0 mm 8,6 km/h (2 Bft) NW 315 1 min -0,7 C 12,8 km/h (3 Bft)
19.03.2016 15:18 13,3 C 17,6 C 38 % 1017,1 hPa 0,0 mm 8,6 km/h (2 Bft) NW 315 1 min -0,7 C 12,8 km/h (3 Bft)
19.03.2016 15:19 13,2 C 17,5 C 37 % 1017,1 hPa 0,0 mm 8,6 km/h (2 Bft) N-NW 337 1 min -1,2 C 3,6 km/h (1 Bft)
19.03.2016 15:20 13,2 C 17,5 C 37 % 1017,1 hPa 0,0 mm 8,6 km/h (2 Bft) N-NW 337 1 min -1,2 C 3,6 km/h (1 Bft)
19.03.2016 15:22 13,2 C 17,5 C 37 % 1017,1 hPa 0,0 mm 8,6 km/h (2 Bft) N-NW 337 2 min -1,2 C 3,6 km/h (1 Bft)
19.03.2016 15:33 13,3 C 17,3 C 38 % 1016,9 hPa 0,0 mm 7,7 km/h (2 Bft) W-SW 247 5 min -0,7 C 6,0 km/h (2 Bft)
19.03.2016 15:34 13,2 C 17,2 C 37 % 1016,9 hPa 0,0 mm 7,7 km/h (2 Bft) S-SO 157 1 min -1,2 C 7,2 km/h (2 Bft)
19.03.2016 15:35 13,2 C 17,2 C 37 % 1016,9 hPa 0,0 mm 7,7 km/h (2 Bft) S-SO 157 1 min -1,2 C 7,2 km/h (2 Bft)
19.03.2016 15:36 13,2 C 17,2 C 37 % 1016,9 hPa 0,0 mm 7,7 km/h (2 Bft) S-SO 157 1 min -1,2 C 7,2 km/h (2 Bft)
19.03.2016 15:37 13,2 C 17,2 C 37 % 1016,9 hPa 0,0 mm 7,7 km/h (2 Bft) S-SO 157 1 min -1,2 C 7,2 km/h (2 Bft)
19.03.2016 15:38 13,4 C 17,1 C 37 % 1016,9 hPa 0,0 mm 7,7 km/h (2 Bft) W 270 1 min -1,0 C 6,9 km/h (2 Bft)
19.03.2016 15:39 13,4 C 17,1 C 37 % 1016,9 hPa 0,0 mm 7,7 km/h (2 Bft) W 270 1 min -1,0 C 6,9 km/h (2 Bft)
19.03.2016 15:50 12,8 C 16,6 C 38 % 1016,6 hPa 0,0 mm 9,8 km/h (2 Bft) W-NW 292 5 min -1,2 C 9,8 km/h (2 Bft)
19.03.2016 15:51 12,8 C 16,6 C 38 % 1016,6 hPa 0,0 mm 9,8 km/h (2 Bft) W-NW 292 1 min -1,2 C 9,8 km/h (2 Bft)
19.03.2016 15:52 12,8 C 16,6 C 38 % 1016,6 hPa 0,0 mm 9,8 km/h (2 Bft) W-NW 292 1 min -1,2 C 9,8 km/h (2 Bft)
19.03.2016 15:53 12,8 C 16,6 C 38 % 1016,6 hPa 0,0 mm 9,8 km/h (2 Bft) W-NW 292 1 min -1,2 C 9,8 km/h (2 Bft)
19.03.2016 15:54 12,7 C 16,8 C 37 % 1016,6 hPa 0,0 mm 6,6 km/h (2 Bft) SW 225 1 min -1,6 C 3,9 km/h (1 Bft)
19.03.2016 15:56 12,7 C 16,8 C 37 % 1016,6 hPa 0,0 mm 6,6 km/h (2 Bft) SW 225 2 min -1,6 C 3,9 km/h (1 Bft)
19.03.2016 15:58 12,3 C 17,0 C 37 % 1016,6 hPa 0,0 mm 3,0 km/h (1 Bft) NW 315 2 min -2,0 C 3,0 km/h (1 Bft)
19.03.2016 16:00 12,3 C 17,0 C 37 % 1016,6 hPa 0,0 mm 3,0 km/h (1 Bft) NW 315 2 min -2,0 C 3,0 km/h (1 Bft)
19.03.2016 16:05 12,3 C 16,8 C 38 % 1016,6 hPa 0,0 mm 3,6 km/h (1 Bft) W-NW 292 5 min -1,6 C 17,0 km/h (3 Bft)
19.03.2016 16:08 12,3 C 16,2 C 39 % 1016,4 hPa 0,0 mm 6,6 km/h (2 Bft) NW 315 3 min -1,2 C 11,9 km/h (2 Bft)
19.03.2016 16:09 12,3 C 16,2 C 39 % 1016,4 hPa 0,0 mm 6,6 km/h (2 Bft) NW 315 1 min -1,2 C 11,9 km/h (2 Bft)
19.03.2016 16:15 12,0 C 15,6 C 39 % 1016,4 hPa 0,0 mm 7,5 km/h (2 Bft) N-NO 22 5 min -1,5 C 12,5 km/h (3 Bft)
19.03.2016 16:20 11,9 C 14,7 C 41 % 1016,4 hPa 0,0 mm 6,6 km/h (2 Bft) NW 315 5 min -0,9 C 11,3 km/h (2 Bft)
19.03.2016 16:25 11,9 C 13,7 C 42 % 1016,4 hPa 0,0 mm 9,2 km/h (2 Bft) NW 315 0 min -0,6 C 6,6 km/h (2 Bft)
19.03.2016 16:30 11,9 C 13,2 C 42 % 1016,2 hPa 0,0 mm 8,9 km/h (2 Bft) NW 315 0 min -0,6 C 14,0 km/h (3 Bft)
19.03.2016 16:35 11,8 C 13,3 C 43 % 1016,2 hPa 0,0 mm 6,9 km/h (2 Bft) N-NO 22 0 min -0,4 C 9,2 km/h (2 Bft)
19.03.2016 16:40 11,4 C 13,6 C 43 % 1016,2 hPa 0,0 mm 7,5 km/h (2 Bft) O-NO 67 5 min -0,7 C 10,4 km/h (2 Bft)
19.03.2016 16:45 11,3 C 13,1 C 43 % 1016,2 hPa 0,0 mm 7,2 km/h (2 Bft) NO 45 0 min -0,8 C 5,7 km/h (1 Bft)
19.03.2016 16:50 11,1 C 12,8 C 43 % 1016,2 hPa 0,0 mm 6,0 km/h (2 Bft) N-NO 22 0 min -1,0 C 6,6 km/h (2 Bft)
19.03.2016 16:55 10,9 C 12,4 C 43 % 1016,2 hPa 0,0 mm 4,8 km/h (1 Bft) NO 45 0 min -1,2 C 11,0 km/h (2 Bft)
19.03.2016 17:00 10,6 C 12,1 C 43 % 1016,2 hPa 0,0 mm 6,6 km/h (2 Bft) O-NO 67 0 min -1,4 C 6,3 km/h (2 Bft)
19.03.2016 17:05 10,0 C 11,5 C 45 % 1016,2 hPa 0,0 mm 7,5 km/h (2 Bft) NO 45 0 min -1,4 C 14,3 km/h (3 Bft)
19.03.2016 17:10 9,7 C 11,1 C 46 % 1016,2 hPa 0,0 mm 8,0 km/h (2 Bft) NW 315 0 min -1,3 C 8,9 km/h (2 Bft)
19.03.2016 17:15 9,4 C 10,9 C 48 % 1016,2 hPa 0,0 mm 7,2 km/h (2 Bft) O-NO 67 0 min -1,0 C 6,6 km/h (2 Bft)
19.03.2016 17:20 9,2 C 10,3 C 49 % 1016,2 hPa 0,0 mm 5,4 km/h (1 Bft) N-NO 22 0 min -0,9 C 6,3 km/h (2 Bft)
19.03.2016 17:25 8,9 C 9,7 C 50 % 1016,2 hPa 0,0 mm 6,0 km/h (2 Bft) N-NW 337 0 min -0,9 C 5,1 km/h (1 Bft)
19.03.2016 17:30 8,7 C 9,3 C 51 % 1016,3 hPa 0,0 mm 6,6 km/h (2 Bft) O-SO 112 0 min -0,9 C 3,6 km/h (1 Bft)
19.03.2016 17:35 8,3 C 8,8 C 51 % 1016,3 hPa 0,0 mm 3,9 km/h (1 Bft) NO 45 0 min -1,2 C 3,3 km/h (1 Bft)
19.03.2016 17:40 8,1 C 8,5 C 52 % 1016,3 hPa 0,0 mm 2,7 km/h (1 Bft) NO 45 0 min -1,2 C 8,3 km/h (2 Bft)
19.03.2016 17:45 7,8 C 8,1 C 53 % 1016,3 hPa 0,0 mm 3,9 km/h (1 Bft) NO 45 0 min -1,2 C 0,0 km/h (0 Bft)
19.03.2016 17:50 7,6 C 7,8 C 54 % 1016,3 hPa 0,0 mm 3,9 km/h (1 Bft) O-NO 67 0 min -1,1 C 10,7 km/h (2 Bft)
19.03.2016 17:55 7,6 C 7,6 C 55 % 1016,3 hPa 0,0 mm 1,8 km/h (1 Bft) O-SO 112 0 min -0,9 C 0,0 km/h (0 Bft)
19.03.2016 18:00 7,3 C 7,3 C 56 % 1016,3 hPa 0,0 mm 1,5 km/h (1 Bft) O-SO 112 0 min -0,9 C 0,0 km/h (0 Bft)
19.03.2016 18:05 7,3 C 7,2 C 57 % 1016,3 hPa 0,0 mm 0,0 km/h (0 Bft) O-SO 112 0 min -0,6 C 0,0 km/h (0 Bft)
19.03.2016 18:10 7,1 C 6,9 C 57 % 1016,4 hPa 0,0 mm 0,0 km/h (0 Bft) O-NO 67 0 min -0,8 C 0,0 km/h (0 Bft)
19.03.2016 18:15 6,5 C 6,4 C 57 % 1016,4 hPa 0,0 mm 0,0 km/h (0 Bft) O-NO 67 0 min -1,4 C 0,0 km/h (0 Bft)
19.03.2016 18:20 6,6 C 6,3 C 58 % 1016,4 hPa 0,0 mm 0,0 km/h (0 Bft) O-NO 67 0 min -1,1 C 0,0 km/h (0 Bft)
19.03.2016 18:25 6,6 C 6,2 C 60 % 1016,4 hPa 0,0 mm 0,9 km/h (0 Bft) SO 135 0 min -0,6 C 3,0 km/h (1 Bft)
19.03.2016 18:30 6,4 C 6,0 C 60 % 1016,6 hPa 0,0 mm 1,8 km/h (1 Bft) SO 135 0 min -0,8 C 4,2 km/h (1 Bft)
19.03.2016 18:35 6,3 C 5,9 C 60 % 1016,6 hPa 0,0 mm 2,1 km/h (1 Bft) S-SO 157 0 min -0,9 C 0,0 km/h (0 Bft)
19.03.2016 18:40 6,3 C 5,9 C 60 % 1016,6 hPa 0,0 mm 1,2 km/h (1 Bft) SO 135 0 min -0,9 C 0,0 km/h (0 Bft)
19.03.2016 18:45 5,7 C 5,3 C 61 % 1016,6 hPa 0,0 mm 0,0 km/h (0 Bft) O-SO 112 0 min -1,2 C 0,0 km/h (0 Bft)
19.03.2016 18:50 5,7 C 5,2 C 63 % 1016,6 hPa 0,0 mm 0,0 km/h (0 Bft) O-NO 67 0 min -0,8 C 0,0 km/h (0 Bft)
19.03.2016 18:55 5,4 C 4,9 C 64 % 1016,6 hPa 0,0 mm 0,0 km/h (0 Bft) O-SO 112 0 min -0,9 C 0,0 km/h (0 Bft)
19.03.2016 18:58 5,5 C 4,9 C 65 % 1016,6 hPa 0,0 mm 0,9 km/h (0 Bft) SW 225 0 min -0,5 C 4,5 km/h (1 Bft)
19.03.2016 19:01 5,5 C 4,9 C 65 % 1016,6 hPa 0,0 mm 0,9 km/h (0 Bft) SW 225 0 min -0,5 C 4,5 km/h (1 Bft)
19.03.2016 19:05 5,5 C 5,0 C 66 % 1016,6 hPa 0,0 mm 2,7 km/h (1 Bft) SO 135 0 min -0,3 C 4,2 km/h (1 Bft)
19.03.2016 19:10 5,6 C 5,1 C 66 % 1016,8 hPa 0,0 mm 3,0 km/h (1 Bft) SO 135 0 min -0,2 C 0,0 km/h (0 Bft)
19.03.2016 19:15 4,9 C 4,6 C 65 % 1016,8 hPa 0,0 mm 0,9 km/h (0 Bft) W-NW 292 0 min -1,1 C 0,0 km/h (0 Bft)
19.03.2016 19:20 4,2 C 3,9 C 66 % 1016,8 hPa 0,0 mm 0,0 km/h (0 Bft) SO 135 0 min -1,6 C 0,0 km/h (0 Bft)
19.03.2016 19:25 4,2 C 3,7 C 68 % 1016,8 hPa 0,0 mm 0,0 km/h (0 Bft) SO 135 0 min -1,2 C 0,0 km/h (0 Bft)
19.03.2016 19:30 4,5 C 3,8 C 69 % 1017,1 hPa 0,0 mm 0,0 km/h (0 Bft) SO 135 0 min -0,7 C 0,0 km/h (0 Bft)
19.03.2016 19:35 4,3 C 3,7 C 69 % 1017,1 hPa 0,0 mm 0,0 km/h (0 Bft) O-NO 67 0 min -0,9 C 0,0 km/h (0 Bft)
19.03.2016 19:40 4,1 C 3,5 C 71 % 1017,1 hPa 0,0 mm 0,0 km/h (0 Bft) O-SO 112 0 min -0,7 C 0,0 km/h (0 Bft)
19.03.2016 19:45 3,6 C 3,1 C 70 % 1017,1 hPa 0,0 mm 0,0 km/h (0 Bft) NW 315 0 min -1,3 C 0,0 km/h (0 Bft)
19.03.2016 19:50 3,0 C 2,6 C 69 % 1017,1 hPa 0,0 mm 0,0 km/h (0 Bft) N-NO 22 0 min -2,1 C 0,0 km/h (0 Bft)
19.03.2016 19:55 3,0 C 2,5 C 71 % 1017,1 hPa 0,0 mm 0,0 km/h (0 Bft) S-SO 157 0 min -1,7 C 3,3 km/h (1 Bft)
19.03.2016 20:00 3,2 C 2,6 C 72 % 1017,1 hPa 0,0 mm 0,0 km/h (0 Bft) O-SO 112 0 min -1,3 C 0,0 km/h (0 Bft)
19.03.2016 20:05 2,8 C 2,3 C 73 % 1017,1 hPa 0,0 mm 0,0 km/h (0 Bft) NO 45 0 min -1,5 C 0,0 km/h (0 Bft)
19.03.2016 20:10 2,3 C 1,9 C 72 % 1017,4 hPa 0,0 mm 0,0 km/h (0 Bft) O-SO 112 0 min -2,2 C 0,0 km/h (0 Bft)
19.03.2016 20:15 2,9 C 2,4 C 69 % 1017,4 hPa 0,0 mm 0,3 km/h (0 Bft) O-NO 67 0 min -2,2 C 0,0 km/h (0 Bft)
19.03.2016 20:20 3,2 C 2,5 C 75 % 1017,4 hPa 0,0 mm 0,3 km/h (0 Bft) O-SO 112 0 min -0,8 C 3,0 km/h (1 Bft)
19.03.2016 20:25 2,9 C 2,4 C 75 % 1017,4 hPa 0,0 mm 0,9 km/h (0 Bft) O 90 0 min -1,1 C 6,0 km/h (2 Bft)
19.03.2016 20:30 2,9 C 2,5 C 75 % 1017,4 hPa 0,0 mm 1,8 km/h (1 Bft) O-SO 112 0 min -1,1 C 0,0 km/h (0 Bft)
19.03.2016 20:35 2,2 C 1,9 C 74 % 1017,4 hPa 0,0 mm 1,2 km/h (1 Bft) N-NW 337 0 min -1,9 C 0,0 km/h (0 Bft)
19.03.2016 20:40 1,9 C 1,6 C 73 % 1017,4 hPa 0,0 mm 0,0 km/h (0 Bft) W-NW 292 0 min -2,4 C 0,0 km/h (0 Bft)
19.03.2016 20:45 1,8 C 1,3 C 75 % 1017,4 hPa 0,0 mm 0,0 km/h (0 Bft) S 180 0 min -2,1 C 0,0 km/h (0 Bft)
19.03.2016 20:50 2,2 C 1,6 C 77 % 1017,6 hPa 0,0 mm 0,0 km/h (0 Bft) SO 135 0 min -1,4 C 0,0 km/h (0 Bft)
19.03.2016 20:55 2,4 C 1,7 C 78 % 1017,6 hPa 0,0 mm 0,3 km/h (0 Bft) O-SO 112 0 min -1,0 C 0,0 km/h (0 Bft)
19.03.2016 21:00 2,3 C 1,7 C 78 % 1017,6 hPa 0,0 mm 0,3 km/h (0 Bft) N-NO 22 0 min -1,1 C 0,0 km/h (0 Bft)
19.03.2016 21:05 1,3 C 0,9 C 77 % 1017,6 hPa 0,0 mm 0,0 km/h (0 Bft) N-NO 22 0 min -2,3 C 0,0 km/h (0 Bft)
19.03.2016 21:10 0,9 C 0,5 C 76 % 1017,6 hPa 0,0 mm 0,0 km/h (0 Bft) N-NO 22 0 min -2,8 C 0,0 km/h (0 Bft)
19.03.2016 21:15 0,8 C 0,3 C 76 % 1017,6 hPa 0,0 mm 0,0 km/h (0 Bft) O-SO 112 0 min -2,9 C 0,0 km/h (0 Bft)
19.03.2016 21:20 0,8 C 0,2 C 76 % 1017,6 hPa 0,0 mm 0,0 km/h (0 Bft) O-SO 112 0 min -2,9 C 0,0 km/h (0 Bft)
19.03.2016 21:25 0,4 C -0,1 C 76 % 1017,6 hPa 0,0 mm 0,0 km/h (0 Bft) NO 45 0 min -3,3 C 0,0 km/h (0 Bft)
19.03.2016 21:30 0,2 C -0,3 C 76 % 1017,6 hPa 0,0 mm 0,0 km/h (0 Bft) NO 45 0 min -3,5 C 0,0 km/h (0 Bft)
19.03.2016 21:35 0,1 C -0,5 C 76 % 1017,6 hPa 0,0 mm 0,0 km/h (0 Bft) N-NO 22 0 min -3,6 C 0,0 km/h (0 Bft)
19.03.2016 21:40 -0,1 C -0,7 C 76 % 1017,6 hPa 0,0 mm 0,0 km/h (0 Bft) NW 315 0 min -3,8 C 0,0 km/h (0 Bft)
19.03.2016 21:45 -0,1 C -0,7 C 77 % 1017,6 hPa 0,0 mm 0,0 km/h (0 Bft) N-NO 22 0 min -3,6 C 0,0 km/h (0 Bft)
19.03.2016 21:50 -0,1 C -0,7 C 77 % 1017,6 hPa 0,0 mm 0,0 km/h (0 Bft) O-NO 67 0 min -3,6 C 0,0 km/h (0 Bft)
19.03.2016 21:55 -0,4 C -0,9 C 77 % 1017,6 hPa 0,0 mm 0,0 km/h (0 Bft) NO 45 0 min -3,9 C 0,0 km/h (0 Bft)
19.03.2016 22:00 -0,3 C -0,9 C 77 % 1017,6 hPa 0,0 mm 0,0 km/h (0 Bft) O-NO 67 0 min -3,8 C 0,0 km/h (0 Bft)
19.03.2016 22:02 -0,3 C -0,9 C 77 % 1017,6 hPa 0,0 mm 0,0 km/h (0 Bft) O-NO 67 0 min -3,8 C 0,0 km/h (0 Bft)
19.03.2016 22:05 0,3 C -0,5 C 79 % 1017,6 hPa 0,0 mm 0,0 km/h (0 Bft) SO 135 0 min -2,9 C 0,0 km/h (0 Bft)
19.03.2016 22:10 0,5 C -0,3 C 81 % 1017,5 hPa 0,0 mm 0,0 km/h (0 Bft) SO 135 0 min -2,4 C 0,0 km/h (0 Bft)
19.03.2016 22:15 -0,2 C -0,7 C 81 % 1017,5 hPa 0,0 mm 0,0 km/h (0 Bft) NW 315 0 min -3,1 C 0,0 km/h (0 Bft)
19.03.2016 22:20 -0,5 C -1,0 C 80 % 1017,5 hPa 0,0 mm 0,0 km/h (0 Bft) O-SO 112 0 min -3,5 C 0,0 km/h (0 Bft)
19.03.2016 22:25 -0,2 C -0,8 C 80 % 1017,5 hPa 0,0 mm 0,0 km/h (0 Bft) O-SO 112 0 min -3,2 C 0,0 km/h (0 Bft)
19.03.2016 22:30 -0,5 C -1,0 C 80 % 1017,5 hPa 0,0 mm 0,0 km/h (0 Bft) NO 45 0 min -3,5 C 0,0 km/h (0 Bft)
19.03.2016 22:35 -0,6 C -1,1 C 80 % 1017,5 hPa 0,0 mm 0,0 km/h (0 Bft) N-NO 22 0 min -3,6 C 0,0 km/h (0 Bft)
19.03.2016 22:40 -0,5 C -1,0 C 80 % 1017,5 hPa 0,0 mm 0,0 km/h (0 Bft) O-NO 67 0 min -3,5 C 0,0 km/h (0 Bft)
19.03.2016 22:45 -0,6 C -1,0 C 80 % 1017,5 hPa 0,0 mm 0,0 km/h (0 Bft) N-NO 22 0 min -3,6 C 0,0 km/h (0 Bft)
19.03.2016 22:50 -0,5 C -0,8 C 80 % 1017,6 hPa 0,0 mm 0,0 km/h (0 Bft) N-NO 22 0 min -3,5 C 0,0 km/h (0 Bft)
19.03.2016 22:55 -0,4 C -0,7 C 81 % 1017,6 hPa 0,0 mm 0,0 km/h (0 Bft) NO 45 0 min -3,3 C 0,0 km/h (0 Bft)
19.03.2016 23:00 -0,3 C -0,6 C 81 % 1017,6 hPa 0,0 mm 0,0 km/h (0 Bft) NW 315 0 min -3,2 C 0,0 km/h (0 Bft)
19.03.2016 23:05 -0,3 C -0,5 C 81 % 1017,6 hPa 0,0 mm 0,0 km/h (0 Bft) NW 315 0 min -3,2 C 0,0 km/h (0 Bft)
19.03.2016 23:10 -0,2 C -0,3 C 78 % 1017,6 hPa 0,0 mm 0,0 km/h (0 Bft) NO 45 0 min -3,6 C 0,0 km/h (0 Bft)
19.03.2016 23:15 -0,1 C -0,1 C 78 % 1017,6 hPa 0,0 mm 0,0 km/h (0 Bft) NO 45 0 min -3,5 C 0,0 km/h (0 Bft)
19.03.2016 23:20 0,2 C 0,1 C 78 % 1017,6 hPa 0,0 mm 0,3 km/h (0 Bft) O-NO 67 0 min -3,2 C 3,6 km/h (1 Bft)
19.03.2016 23:25 0,5 C 0,4 C 78 % 1017,6 hPa 0,0 mm 1,8 km/h (1 Bft) NO 45 0 min -2,9 C 4,5 km/h (1 Bft)
19.03.2016 23:30 0,6 C 0,5 C 78 % 1017,6 hPa 0,0 mm 1,8 km/h (1 Bft) O 90 0 min -2,8 C 0,0 km/h (0 Bft)
19.03.2016 23:35 0,7 C 0,6 C 84 % 1017,6 hPa 0,0 mm 1,5 km/h (1 Bft) O-NO 67 0 min -1,7 C 5,7 km/h (1 Bft)
19.03.2016 23:40 0,8 C 0,6 C 84 % 1017,6 hPa 0,0 mm 0,9 km/h (0 Bft) O-SO 112 0 min -1,6 C 3,3 km/h (1 Bft)
19.03.2016 23:45 0,8 C 0,7 C 79 % 1017,6 hPa 0,0 mm 0,9 km/h (0 Bft) N-NO 22 0 min -2,4 C 0,0 km/h (0 Bft)
19.03.2016 23:50 0,9 C 0,7 C 85 % 1017,5 hPa 0,0 mm 1,2 km/h (1 Bft) NO 45 0 min -1,3 C 5,7 km/h (1 Bft)
19.03.2016 23:55 0,9 C 0,7 C 85 % 1017,5 hPa 0,0 mm 1,2 km/h (1 Bft) NO 45 0 min -1,3 C 3,0 km/h (1 Bft)
_ Min-Zeit 03:10 03:10 16:00 06:45 - 23:15 - - - 03:10 23:45
Minimum _ -3,2 C -3,7 C 37 % 1015,9 hPa - 0,0 km/h (0 Bft) - - - -6,3 C 0,0 km/h (0 Bft)
_ Max-Zeit 14:45 09:40 23:55 11:25 23:55 15:53 - - 16:40 10:15 15:16
Maximum _ 13,6 C 19,6 C 85 % 1019,4 hPa 0,0 mm 9,8 km/h
W-NW (2 Bft)
- - 5 min 1,6 C 24,4 km/h
NW (4 Bft)
Durchschnitt _ 4,1 C 6,2 C 66 % 1017,3 hPa #0,0 mm 2,2 km/h (1 Bft) NW - #7:56 h -2,4 C 2,9 km/h (1 Bft)